Total_Precipitation_Accumulation
1.37 2.00 0.77 0.97 1.22 0.81 0.58 0.92 0.78 0.44 0.20 0.10 0.11 0.10 0.10 0.12 0.29 0.22 0.20 0.17 0.19 0.49 0.41 0.35 0.14 0.21 0.10 0.18 0.02 0.02 0.01 0.00 0.00 0.00 0.01 0.01 0.00 0.00 0.01 0.00 0.00 0.00 0.00 0.00 0.00 0.00 0.00 0.00 0.00 0.00 0.00 0.00 0.00 0.00 0.00 0.00 0.00 0.00 0.00 0.00 0.00 0.00
2.00 1.18 1.14 1.14 1.07 0.48 1.06 0.80 0.92 0.46 0.67 0.50 0.42 0.30 0.21 0.27 0.47 0.52 0.38 0.21 0.46 0.74 0.62 0.31 0.32 0.54 0.20 0.15 0.14 0.02 0.01 0.00 0.00 0.00 0.00 0.00 0.01 0.01 0.00 0.00 0.00 0.00 0.00 0.00 0.00 0.00 0.00 0.00 0.00 0.00 0.00 0.00 0.00 0.01 0.00 0.00 0.00 0.00 0.00 0.01 0.00 0.00
1.48 1.43 1.76 1.49 1.31 1.22 1.07 1.01 1.10 1.09 0.75 0.43 0.54 0.36 0.33 0.39 0.49 0.54 0.49 0.56 1.14 1.28 0.97 0.68 0.89 0.38 0.37 0.14 0.18 0.02 0.01 0.00 0.00 0.01 0.00 0.00 0.01 0.00 0.00 0.01 0.02 0.00 0.00 0.00 0.01 0.01 0.01 0.00 0.00 0.00 0.00 0.00 0.02 0.01 0.01 0.02 0.00 0.00 0.01 0.00 0.00 0.00
1.85 1.55 1.58 2.01 2.02 1.07 1.05 1.59 0.85 1.02 0.71 0.92 0.64 0.50 0.53 0.67 0.73 0.83 0.96 1.36 2.27 1.14 1.43 1.29 0.85 0.42 0.36 0.26 0.18 0.02 0.01 0.00 0.00 0.01 0.00 0.02 0.02 0.01 0.01 0.02 0.02 0.01 0.00 0.01 0.00 0.01 0.02 0.04 0.03 0.02 0.01 0.06 0.01 0.01 0.01 0.00 0.00 0.00 0.00 0.00 0.00 0.00
1.42 1.50 1.65 1.98 1.80 1.07 1.38 1.21 1.77 1.15 1.05 1.22 1.03 0.91 1.52 1.20 1.43 1.38 1.79 2.18 1.55 1.42 1.19 0.99 0.85 0.59 0.56 0.25 0.19 0.15 0.22 0.08 0.09 0.12 0.01 0.09 0.18 0.49 0.11 0.14 0.03 0.00 0.01 0.00 0.00 0.01 0.02 0.03 0.04 0.03 0.02 0.02 0.02 0.02 0.02 0.00 0.00 0.01 0.00 0.01 0.00 0.00
2.28 1.81 1.31 1.86 1.22 1.52 1.93 1.97 1.36 1.62 1.64 1.41 1.43 1.21 1.15 1.88 1.87 2.39 1.40 2.26 1.69 1.71 1.34 1.18 1.18 1.01 0.81 0.43 0.37 0.31 0.23 0.38 0.10 0.07 0.06 0.08 0.19 0.45 0.22 0.18 0.05 0.04 0.01 0.00 0.00 0.00 0.01 0.13 0.10 0.07 0.04 0.03 0.02 0.03 0.01 0.00 0.01 0.01 0.04 0.01 0.00 0.00
2.63 1.53 1.64 1.30 1.75 1.27 1.38 1.59 1.37 1.70 1.36 1.37 1.87 1.36 0.80 1.53 1.82 1.37 1.54 2.08 1.78 1.56 1.72 1.21 1.53 1.20 0.75 0.28 0.56 0.49 0.49 0.42 0.32 0.38 0.14 0.26 0.40 0.14 0.09 0.21 0.14 0.03 0.02 0.01 0.02 0.01 0.01 0.09 0.25 0.26 0.16 0.04 0.05 0.07 0.15 0.03 0.01 0.04 0.02 0.05 0.00 0.00
1.52 1.25 1.33 1.30 1.43 0.69 1.37 1.89 1.56 1.75 1.93 1.81 1.27 1.26 1.46 0.92 1.08 1.10 1.67 1.30 1.54 1.39 1.14 1.13 1.10 0.91 0.64 0.58 0.88 0.67 0.72 0.96 0.98 0.62 0.35 0.74 0.69 0.20 0.14 0.14 0.10 0.01 0.01 0.02 0.01 0.01 0.02 0.19 0.08 0.36 0.24 0.24 0.11 0.76 0.44 0.04 0.02 0.02 0.03 0.05 0.01 0.01
1.08 1.08 1.21 0.97 0.85 1.48 1.80 1.75 1.79 1.31 1.12 1.13 1.33 1.52 1.18 0.93 1.11 1.34 1.13 1.13 0.87 1.35 1.55 1.31 1.25 1.03 0.55 0.65 0.91 0.44 0.57 0.77 0.78 0.52 0.48 0.46 0.52 0.62 0.46 0.25 0.08 0.05 0.02 0.02 0.03 0.03 0.02 0.15 0.21 0.21 0.30 0.28 0.48 0.68 0.71 0.23 0.13 0.07 0.06 0.06 0.05 0.02
0.82 1.20 1.24 1.18 1.23 0.70 1.11 0.94 1.06 1.10 1.07 0.98 0.97 1.13 0.86 0.70 0.78 1.02 1.16 1.24 1.34 1.32 1.22 1.13 1.05 0.84 0.69 0.52 0.74 0.39 0.44 0.47 0.53 0.51 0.35 0.31 1.01 0.70 0.38 0.18 0.16 0.07 0.02 0.02 0.02 0.01 0.05 0.11 0.09 0.18 0.36 0.42 0.92 1.04 0.34 0.85 0.12 0.26 0.11 0.08 0.04 0.03
0.66 0.69 0.86 0.56 0.68 0.92 0.56 0.59 0.48 0.63 0.85 0.62 0.89 0.87 0.83 0.85 1.08 1.46 1.61 1.41 0.82 1.02 1.18 1.04 0.99 0.69 0.51 0.62 0.87 0.82 0.57 0.42 0.42 0.41 0.54 0.56 0.54 0.54 0.42 0.35 0.29 0.07 0.06 0.04 0.07 0.02 0.02 0.19 0.15 0.32 0.46 0.17 0.83 1.07 0.90 1.21 0.86 0.62 0.50 0.22 0.09 0.06
1.18 0.62 0.65 0.62 0.63 0.53 0.46 0.34 0.33 0.73 0.64 0.60 0.45 0.98 0.87 0.99 1.43 1.01 1.30 0.98 0.68 1.12 1.28 1.08 1.10 0.88 0.82 0.53 0.93 0.94 0.77 0.61 0.60 0.75 0.72 0.90 0.78 0.41 0.37 0.24 0.20 0.08 0.20 0.26 0.21 0.06 0.02 0.06 0.09 0.33 0.27 0.95 0.96 1.28 0.88 0.78 0.70 0.92 0.92 0.38 0.18 0.09
1.05 0.64 0.50 0.52 0.50 0.38 0.29 0.43 0.57 0.62 0.41 0.31 0.62 0.55 0.79 0.80 1.04 1.10 1.39 0.80 1.10 1.55 1.70 1.36 0.87 0.71 0.74 0.70 0.62 0.99 0.72 0.81 0.57 0.81 0.75 0.53 0.35 0.32 0.26 0.09 0.05 0.08 0.29 0.33 0.29 0.24 0.10 0.13 0.06 0.21 0.21 0.70 0.45 0.47 0.67 1.03 0.79 1.24 1.23 0.42 0.45 0.25
0.70 0.87 0.64 0.51 0.40 0.31 0.41 0.54 0.36 0.44 0.19 0.29 0.42 0.60 0.65 0.94 1.05 0.88 1.29 1.08 1.25 1.88 1.44 1.12 1.44 1.40 1.05 1.11 0.75 0.67 1.06 0.92 0.72 1.03 0.84 0.48 0.74 0.37 0.23 0.35 0.11 0.08 0.32 0.46 0.59 0.26 0.29 0.19 0.26 0.24 0.56 0.64 0.85 0.68 0.88 0.47 0.78 0.87 0.79 1.02 0.73 0.52
0.48 0.80 0.51 0.41 0.29 0.50 0.55 0.16 0.31 0.48 0.25 0.24 0.41 0.61 0.49 0.74 0.96 0.79 0.67 1.48 1.59 1.78 1.43 1.53 1.23 0.84 1.01 0.60 0.59 0.99 1.24 0.81 0.96 0.81 1.07 0.91 0.54 0.58 0.55 0.40 0.21 0.25 0.32 0.64 0.53 0.38 0.30 0.86 0.38 0.54 0.58 0.94 1.52 1.32 0.56 1.29 0.81 0.59 0.39 0.51 0.40 0.70
0.60 0.65 0.51 0.30 0.16 0.51 0.43 0.27 0.23 0.36 0.25 0.37 0.40 0.63 0.59 0.74 0.95 0.96 1.12 1.24 1.57 1.37 1.62 1.13 0.96 1.46 0.68 0.64 0.59 0.70 1.01 1.12 0.66 0.75 1.11 1.35 0.67 1.04 0.72 0.86 0.71 0.47 0.31 0.68 0.80 0.84 0.72 0.74 0.50 0.56 0.96 1.04 1.20 0.63 1.27 1.36 1.42 0.95 0.40 0.45 0.72 0.70
0.83 0.40 0.37 0.49 0.29 0.21 0.54 0.35 0.41 0.50 0.21 0.25 0.42 0.38 0.42 0.44 0.58 0.80 0.81 0.76 1.09 1.17 0.80 1.31 1.29 1.12 0.86 0.76 0.45 0.51 0.74 1.19 0.94 0.68 1.13 0.67 0.80 0.62 0.87 0.53 0.54 0.47 0.62 0.74 0.77 0.63 1.05 1.33 0.72 0.94 1.01 1.32 1.89 1.51 1.02 1.72 1.23 1.10 1.22 0.83 1.46 1.30
1.35 0.38 0.34 0.59 0.76 1.11 0.86 0.83 0.60 0.26 0.15 0.20 0.14 0.18 0.63 0.43 0.75 1.14 1.51 1.10 0.87 0.77 0.87 0.72 0.66 0.71 1.09 0.63 0.72 0.93 0.74 2.24 1.52 0.94 0.77 0.82 0.66 0.64 0.97 0.67 0.49 0.50 0.59 0.70 0.66 0.92 1.03 0.97 1.22 1.13 1.52 2.24 2.08 1.65 1.42 1.61 1.65 1.15 1.56 1.41 1.67 1.67
0.70 0.54 0.73 1.38 1.22 1.22 0.97 0.90 0.53 0.39 0.18 0.32 0.41 0.58 0.68 0.89 0.89 0.98 1.48 1.27 0.69 0.56 0.44 0.42 0.59 0.65 0.60 0.77 0.68 0.64 0.70 0.94 1.18 1.06 1.07 1.02 1.30 0.83 0.76 0.59 0.61 0.41 0.53 0.65 0.61 0.75 0.90 1.31 1.24 1.57 1.51 1.78 1.71 1.35 1.17 1.31 1.31 1.15 1.35 1.38 2.42 1.59
1.66 0.96 0.66 1.97 1.11 1.18 0.51 0.36 0.41 0.40 0.56 0.84 1.21 0.78 0.78 0.69 1.06 0.68 1.14 1.05 1.06 0.57 0.88 0.62 0.25 0.58 0.53 0.86 0.51 0.84 0.50 0.51 1.15 1.16 1.34 0.93 0.78 0.94 0.94 1.02 0.72 0.86 0.71 0.66 0.58 1.14 0.84 0.66 1.04 1.21 1.52 0.92 0.84 0.85 1.30 1.18 1.08 1.39 1.32 1.47 1.63 1.58
0.93 1.01 1.11 1.34 1.02 0.56 0.23 0.27 0.20 0.38 0.49 0.21 0.22 0.59 0.59 0.69 0.98 1.26 0.92 0.89 0.70 0.42 0.54 1.34 1.11 1.14 0.83 0.56 0.48 0.78 0.57 0.57 0.58 0.49 0.74 0.95 0.88 1.03 1.50 1.09 1.08 1.15 0.99 1.24 0.83 0.51 0.84 1.03 0.73 0.77 1.04 0.61 0.70 0.92 1.10 1.50 1.43 1.80 1.83 2.20 1.92 2.06
0.77 0.68 0.73 1.03 0.88 0.18 0.34 0.17 0.33 0.37 0.69 0.79 0.86 1.08 0.66 0.81 1.02 1.42 1.13 1.20 0.95 1.11 1.07 0.52 0.88 0.61 0.45 0.61 0.74 0.43 0.48 0.58 0.91 0.77 0.90 0.72 0.64 0.95 0.91 0.66 0.88 0.99 0.99 1.09 0.75 0.54 0.82 0.93 0.86 0.69 0.68 0.55 0.64 0.65 1.14 1.13 1.08 1.30 1.45 1.10 1.32 1.82
0.85 0.76 0.48 1.14 0.82 0.91 0.90 1.24 1.28 1.11 0.87 1.36 1.13 1.26 1.18 1.63 1.73 1.09 1.11 1.07 0.71 0.52 0.50 0.77 0.56 0.77 0.65 0.59 0.74 0.50 0.45 1.31 1.11 0.77 0.90 0.88 0.72 1.04 0.87 0.85 0.96 0.72 1.01 0.90 0.82 0.94 1.02 0.53 1.03 1.40 1.66 1.09 0.62 0.89 0.93 0.85 0.84 0.93 1.11 1.29 1.37 1.26
0.76 0.50 0.44 0.74 0.53 0.74 1.24 2.36 0.99 1.29 1.47 1.11 0.75 0.90 1.55 1.42 1.20 1.56 0.89 0.73 0.57 0.51 0.61 0.55 0.46 0.65 0.33 0.54 0.72 0.76 0.89 1.31 1.79 0.96 0.84 0.84 0.77 0.73 0.65 0.70 0.98 1.05 1.75 1.29 0.33 0.52 1.19 2.12 1.47 1.46 1.02 1.05 1.35 0.56 0.78 0.98 0.88 0.92 0.90 0.75 0.86 1.30
0.48 0.31 0.44 0.29 0.51 0.67 0.92 1.00 0.93 0.83 1.24 1.82 1.33 1.56 1.28 2.24 1.09 0.73 0.98 0.95 0.32 0.37 0.56 0.55 0.66 0.84 0.58 0.43 0.47 0.68 0.85 0.71 1.11 0.93 0.81 0.72 0.54 0.53 0.57 0.76 1.29 1.01 0.37 0.71 0.81 1.54 1.26 1.32 1.93 0.95 1.04 1.24 0.94 0.65 0.76 0.81 0.41 0.84 1.00 0.82 0.77 0.46
0.30 0.23 0.17 0.34 0.45 1.16 0.81 0.69 0.69 0.64 0.72 0.88 0.93 0.87 0.43 0.75 0.63 0.90 0.30 0.22 0.36 0.35 0.55 0.44 0.34 0.62 0.98 0.25 0.31 0.55 0.75 0.69 1.37 1.13 0.96 0.91 0.95 1.23 0.98 0.84 0.66 1.39 1.21 0.64 0.60 1.06 0.82 0.95 0.86 0.99 1.06 1.33 2.10 1.77 0.86 0.74 0.47 0.80 0.54 0.61 0.63 0.98
0.19 0.21 0.25 0.36 0.42 1.11 0.83 0.80 0.42 0.46 0.53 0.93 0.59 0.71 0.84 0.81 0.67 0.67 0.43 0.22 0.23 0.56 0.60 0.51 0.45 0.36 0.51 0.31 0.35 0.57 0.81 0.90 1.03 0.87 0.97 1.59 1.78 1.37 0.70 0.74 0.61 1.30 1.12 1.23 1.38 1.24 1.16 1.50 1.00 0.74 1.06 1.65 1.57 0.84 0.86 0.51 0.98 0.60 0.52 0.58 0.75 0.77
0.27 0.23 0.28 0.17 0.40 0.50 0.67 0.93 0.79 0.79 0.56 0.53 0.67 0.65 0.89 0.59 0.39 0.97 0.32 0.39 0.38 0.39 0.34 0.31 0.35 0.37 0.64 0.59 0.43 0.56 0.73 0.98 1.01 1.08 0.73 0.61 0.98 0.94 0.63 1.43 1.27 1.58 1.73 1.54 1.28 1.15 1.08 1.12 0.63 1.03 1.33 1.26 1.01 1.02 1.21 0.78 1.12 0.90 0.43 0.40 0.33 0.37
0.77 0.46 0.42 0.56 0.76 0.95 0.68 0.71 0.80 0.76 0.41 0.56 0.58 0.57 0.56 0.62 0.57 0.38 0.41 0.32 0.67 0.73 0.64 0.48 0.47 0.65 1.08 1.11 0.69 0.57 0.69 1.06 1.30 1.15 0.45 0.66 1.01 0.98 0.78 0.73 0.76 0.92 0.90 1.05 1.62 0.86 0.93 0.92 0.94 0.98 0.66 0.80 0.47 0.45 0.68 0.57 0.87 1.00 1.12 0.32 0.26 0.25
0.42 0.95 1.11 1.21 1.42 1.37 1.05 1.30 1.07 1.34 0.52 0.48 0.33 0.60 0.55 0.37 0.30 0.25 0.27 0.50 0.72 0.81 0.30 0.40 0.68 1.04 1.34 0.54 0.66 0.92 1.27 1.49 1.33 0.67 0.79 0.75 0.69 0.46 0.77 0.81 0.82 0.77 1.05 1.70 1.27 1.16 0.96 1.09 1.21 1.11 1.02 0.83 0.81 0.62 0.83 1.01 0.86 0.91 0.80 0.42 0.53 0.13
0.66 0.88 1.47 1.68 1.25 0.91 1.26 1.69 1.39 0.90 0.79 0.28 0.22 0.20 0.37 0.20 0.13 0.14 0.26 0.32 0.80 0.30 0.50 0.52 0.55 0.86 0.77 1.00 0.74 0.48 0.60 1.19 1.56 1.29 1.46 1.47 0.88 0.46 0.51 0.64 0.68 0.75 0.79 1.34 1.07 1.20 1.14 1.02 0.98 0.78 0.68 0.69 0.72 0.72 1.03 1.02 0.50 0.65 1.00 0.56 0.41 0.38
0.80 1.10 1.40 1.40 1.05 1.94 1.77 1.21 1.09 0.68 0.65 0.52 0.17 0.14 0.07 0.08 0.09 0.11 0.19 0.19 0.52 1.05 1.22 0.69 0.59 0.53 0.61 0.59 0.40 0.36 0.37 0.60 0.71 0.86 0.95 0.89 0.85 0.82 0.50 0.47 0.51 0.46 0.47 1.12 0.94 0.57 0.67 1.07 0.88 1.04 0.90 0.69 0.68 0.92 0.75 0.71 0.71 0.78 0.91 0.95 0.42 0.22
0.89 0.89 0.90 2.04 2.16 2.16 1.58 1.51 1.15 0.53 0.35 0.25 0.28 0.12 0.12 0.11 0.12 0.14 0.17 0.24 0.40 0.60 0.97 0.74 0.25 0.36 0.54 0.69 0.75 0.40 0.52 0.87 0.58 0.55 0.58 0.47 0.58 0.46 0.29 0.34 0.28 0.22 0.43 0.49 0.58 0.49 0.52 0.45 0.63 0.56 0.66 0.70 0.94 0.84 0.50 0.44 0.54 1.03 0.60 0.68 0.28 0.14
0.86 0.81 1.76 2.47 2.33 2.10 1.61 1.85 1.07 0.78 0.31 0.28 0.28 0.23 0.47 0.14 0.17 0.22 0.45 0.57 0.36 1.00 0.91 0.46 0.54 0.46 0.80 0.78 0.75 0.61 0.36 0.30 0.29 0.35 0.32 0.28 0.43 0.31 0.22 0.28 0.35 0.38 0.34 0.29 0.52 0.50 0.56 0.47 0.39 0.37 0.41 0.58 0.55 0.68 0.43 0.41 0.47 0.44 0.50 1.17 0.29 0.18
1.60 1.29 1.72 2.34 1.97 2.78 1.76 0.98 0.50 0.50 0.65 0.40 0.46 0.54 0.40 0.25 0.35 0.43 0.47 0.59 0.69 0.71 0.54 0.54 0.76 0.81 1.01 0.74 0.68 0.63 0.40 0.23 0.19 0.16 0.20 0.23 0.40 0.29 0.33 0.28 0.64 0.67 0.90 0.69 0.81 0.94 0.49 0.47 0.55 0.30 0.48 0.37 0.37 0.38 0.62 0.58 0.44 0.39 0.25 0.39 0.34 0.18
2.18 2.78 2.71 1.80 2.33 2.72 0.82 0.45 0.55 0.47 0.38 0.33 0.28 0.33 0.32 0.26 0.19 0.24 0.29 0.76 0.43 0.71 1.16 0.68 0.99 1.15 0.72 0.65 0.51 0.44 0.38 0.32 0.27 0.33 0.36 0.25 0.28 0.28 0.37 0.45 0.51 0.61 0.69 0.54 0.61 0.51 0.63 0.49 0.58 0.57 0.54 0.39 0.55 0.77 0.53 0.46 0.52 0.49 0.33 0.21 0.39 0.32
1.99 4.00 3.28 3.75 3.21 0.62 0.82 0.27 0.26 0.39 0.30 0.41 0.25 0.18 0.22 0.18 0.22 0.47 0.51 0.48 0.53 0.94 1.55 1.18 0.89 1.14 0.81 0.90 0.52 0.44 0.41 0.37 0.33 0.36 0.42 0.37 0.37 0.27 0.39 0.36 0.49 0.53 0.44 0.70 0.55 0.51 0.33 0.49 0.63 0.57 0.74 0.52 0.49 0.59 0.66 0.68 0.46 0.60 0.64 0.52 0.56 0.50